This is the latest recevied weather packets stored in our database for station/object N8RJC-13. If no packets are shown the sender has not sent any weather packets the latest 1 day(s).
| Time | Temp. | Humidity | Pressure | Rain* | Wind** | Luminosity | Snow |
|---|---|---|---|---|---|---|---|
| 1778034321 | 10.56° C | 94% | 984.4 hPa | 2.79 mm | 1.34 m/s, 329° | - | - |
| 1778034260 | 10.56° C | 94% | 984.4 hPa | 4.06 mm | 1.34 m/s, 0° | - | - |
| 1778034141 | 10.56° C | 94% | 984.4 hPa | 4.06 mm | 1.34 m/s, 0° | - | - |
| 1778034021 | 10.56° C | 94% | 984.4 hPa | 4.06 mm | 1.34 m/s, 0° | - | - |
| 1778033961 | 11.11° C | 94% | 984.6 hPa | 4.57 mm | 0.45 m/s, 69° | - | - |
| 1778033901 | 11.11° C | 94% | 984.6 hPa | 4.57 mm | 0.45 m/s, 69° | - | - |
| 1778033841 | 11.11° C | 94% | 984.6 hPa | 4.57 mm | 0.45 m/s, 69° | - | - |
| 1778033781 | 11.11° C | 94% | 984.6 hPa | 4.57 mm | 0.45 m/s, 69° | - | - |
| 1778033661 | 10.56° C | 94% | 984.5 hPa | 4.57 mm | 0.89 m/s, 353° | - | - |
| 1778033601 | 10.56° C | 94% | 984.5 hPa | 4.57 mm | 0.89 m/s, 353° | - | - |
| 1778033421 | 10.56° C | 94% | 984.5 hPa | 4.57 mm | 0.89 m/s, 353° | - | - |
| 1778033361 | 11.11° C | 94% | 984.3 hPa | 4.06 mm | 1.34 m/s, 342° | - | - |
| 1778033301 | 11.11° C | 94% | 984.3 hPa | 4.06 mm | 1.34 m/s, 342° | - | - |
| 1778033181 | 11.11° C | 94% | 984.3 hPa | 4.06 mm | 1.34 m/s, 342° | - | - |
| 1778033121 | 11.11° C | 94% | 984.3 hPa | 4.06 mm | 1.34 m/s, 342° | - | - |
| 1778032941 | 11.67° C | 94% | 984.4 hPa | 5.84 mm | 0.89 m/s, 343° | - | - |
| 1778032881 | 11.67° C | 94% | 984.4 hPa | 5.84 mm | 0.89 m/s, 343° | - | - |
| 1778032821 | 11.67° C | 94% | 984.4 hPa | 5.84 mm | 0.89 m/s, 343° | - | - |
| 1778032761 | 11.67° C | 94% | 984.4 hPa | 7.62 mm | 0.89 m/s, 351° | - | - |
| 1778032701 | 11.67° C | 94% | 984.4 hPa | 7.62 mm | 0.89 m/s, 351° | - | - |
| 1778032641 | 11.67° C | 94% | 984.4 hPa | 7.62 mm | 0.89 m/s, 351° | - | - |
| 1778032581 | 11.67° C | 94% | 984.4 hPa | 7.62 mm | 0.89 m/s, 351° | - | - |
| 1778032521 | 11.67° C | 94% | 984.4 hPa | 7.62 mm | 0.89 m/s, 351° | - | - |
| 1778032401 | 13.33° C | 94% | 984.3 hPa | 2.79 mm | 0.45 m/s, 241° | - | - |
| 1778032341 | 13.33° C | 94% | 984.3 hPa | 2.79 mm | 0.45 m/s, 241° | - | - |
* Rain latest hour (hover to see other rain measurements)
** Current wind speed in m/s (hover to see current wind gust speed)